Location: McFarlands Corners
(41.4117°N, 81.3382°W)
Time: 02:00:52
(UTC+00:00)

Transit 4A - Pass Details

Date: 20 February 2026
Orbit: 863 x 978 km, 66.8° (Epoch: 13 March)

Event Time Altitude Azimuth Distance (km) Brightness Sun altitude
Rises 14:50:07 0° 339° (NNW) 3,588 10.5 25.0°
Reaches altitude 10° 14:55:27 10° 17° (NNE) 2,675 10.1 25.7°
Maximum altitude 14:56:41 11° 29° (NNE) 2,640 10.2 25.8°
Drops below altitude 10° 14:57:56 10° 41° (NE) 2,688 10.4 26.0°
Sets 15:03:20 0° 79° (ENE) 3,656 11.4 26.7°
